Year,Month,Day,Hour,Minute,Value (Times are PST for temperature in C)
2015,08,12,00,00,20.50
2015,08,12,00,01,20.50
2015,08,12,00,02,20.40
2015,08,12,00,03,20.40
2015,08,12,00,04,20.40
2015,08,12,00,05,20.40
2015,08,12,00,06,20.30
2015,08,12,00,07,20.30
2015,08,12,00,08,20.30
2015,08,12,00,09,20.30
2015,08,12,00,10,20.30
2015,08,12,00,11,20.30
2015,08,12,00,12,20.30
2015,08,12,00,13,20.30
2015,08,12,00,14,20.30
2015,08,12,00,15,20.30
2015,08,12,00,16,20.30
2015,08,12,00,17,20.30
2015,08,12,00,18,20.30
2015,08,12,00,19,20.20
2015,08,12,00,20,20.20
2015,08,12,00,21,20.20
2015,08,12,00,22,20.20
2015,08,12,00,23,20.20
2015,08,12,00,24,20.20
2015,08,12,00,25,20.20
2015,08,12,00,26,20.20
2015,08,12,00,27,20.10
2015,08,12,00,28,20.10
2015,08,12,00,29,20.10
2015,08,12,00,30,20.10
2015,08,12,00,31,20.00
2015,08,12,00,32,20.00
2015,08,12,00,33,20.00
2015,08,12,00,34,20.00
2015,08,12,00,35,20.00
2015,08,12,00,36,20.00
2015,08,12,00,37,20.00
2015,08,12,00,38,19.90
2015,08,12,00,39,19.90
2015,08,12,00,40,19.90
2015,08,12,00,41,19.90
2015,08,12,00,42,19.90
2015,08,12,00,43,19.90
2015,08,12,00,44,19.90
2015,08,12,00,45,19.90
2015,08,12,00,46,19.90
2015,08,12,00,47,19.90
2015,08,12,00,48,19.90
2015,08,12,00,49,19.80
2015,08,12,00,50,19.80
2015,08,12,00,51,19.80
2015,08,12,00,52,19.80
2015,08,12,00,53,19.80
2015,08,12,00,54,19.80
2015,08,12,00,55,19.80
2015,08,12,00,56,19.80
2015,08,12,00,57,19.80
2015,08,12,00,58,19.80
2015,08,12,00,59,19.80
2015,08,12,01,00,19.80
2015,08,12,01,01,19.80
2015,08,12,01,02,19.70
2015,08,12,01,03,19.70
2015,08,12,01,04,19.70
2015,08,12,01,05,19.70
2015,08,12,01,06,19.70
2015,08,12,01,07,19.70
2015,08,12,01,08,19.60
2015,08,12,01,09,19.60
2015,08,12,01,10,19.60
2015,08,12,01,11,19.60
2015,08,12,01,12,19.60
2015,08,12,01,13,19.50
2015,08,12,01,14,19.50
2015,08,12,01,15,19.50
2015,08,12,01,16,19.50
2015,08,12,01,17,19.40
2015,08,12,01,18,19.40
2015,08,12,01,19,19.40
2015,08,12,01,20,19.40
2015,08,12,01,21,19.40
2015,08,12,01,22,19.40
2015,08,12,01,23,19.40
2015,08,12,01,24,19.40
2015,08,12,01,25,19.30
2015,08,12,01,26,19.30
2015,08,12,01,27,19.30
2015,08,12,01,28,19.30
2015,08,12,01,29,19.30
2015,08,12,01,30,19.30
2015,08,12,01,31,19.30
2015,08,12,01,32,19.30
2015,08,12,01,33,19.30
2015,08,12,01,34,19.20
2015,08,12,01,35,19.20
2015,08,12,01,36,19.20
2015,08,12,01,37,19.20
2015,08,12,01,38,19.20
2015,08,12,01,39,19.20
2015,08,12,01,40,19.20
2015,08,12,01,41,19.20
2015,08,12,01,42,19.20
2015,08,12,01,43,19.20
2015,08,12,01,44,19.20
2015,08,12,01,45,19.10
2015,08,12,01,46,19.10
2015,08,12,01,47,19.10
2015,08,12,01,48,19.10
2015,08,12,01,49,19.10
2015,08,12,01,50,19.10
2015,08,12,01,51,19.10
2015,08,12,01,52,19.10
2015,08,12,01,53,19.00
2015,08,12,01,54,19.00
2015,08,12,01,55,18.90
2015,08,12,01,56,18.90
2015,08,12,01,57,18.90
2015,08,12,01,58,18.90
2015,08,12,01,59,18.90
2015,08,12,02,00,18.90
2015,08,12,02,01,18.80
2015,08,12,02,02,18.80
2015,08,12,02,03,18.80
2015,08,12,02,04,18.80
2015,08,12,02,05,18.80
2015,08,12,02,06,18.80
2015,08,12,02,07,18.80
2015,08,12,02,08,18.80
2015,08,12,02,09,18.80
2015,08,12,02,10,18.80
2015,08,12,02,11,18.80
2015,08,12,02,12,18.70
2015,08,12,02,13,18.70
2015,08,12,02,14,18.70
2015,08,12,02,15,18.70
2015,08,12,02,16,18.70
2015,08,12,02,17,18.70
2015,08,12,02,18,18.70
2015,08,12,02,19,18.70
2015,08,12,02,20,18.70
2015,08,12,02,21,18.70
2015,08,12,02,22,18.70
2015,08,12,02,23,18.60
2015,08,12,02,24,18.60
2015,08,12,02,25,18.60
2015,08,12,02,26,18.60
2015,08,12,02,27,18.60
2015,08,12,02,28,18.60
2015,08,12,02,29,18.60
2015,08,12,02,30,18.60
2015,08,12,02,31,18.60
2015,08,12,02,32,18.60
2015,08,12,02,33,18.60
2015,08,12,02,34,18.60
2015,08,12,02,35,18.60
2015,08,12,02,36,18.50
2015,08,12,02,37,18.50
2015,08,12,02,38,18.50
2015,08,12,02,39,18.50
2015,08,12,02,40,18.50
2015,08,12,02,41,18.50
2015,08,12,02,42,18.50
2015,08,12,02,43,18.40
2015,08,12,02,44,18.40
2015,08,12,02,45,18.40
2015,08,12,02,46,18.40
2015,08,12,02,47,18.40
2015,08,12,02,48,18.40
2015,08,12,02,49,18.40
2015,08,12,02,50,18.40
2015,08,12,02,51,18.40
2015,08,12,02,52,18.40
2015,08,12,02,53,18.30
2015,08,12,02,54,18.30
2015,08,12,02,55,18.30
2015,08,12,02,56,18.30
2015,08,12,02,57,18.30
2015,08,12,02,58,18.30
2015,08,12,02,59,18.30
2015,08,12,03,00,18.30
2015,08,12,03,01,18.30
2015,08,12,03,02,18.30
2015,08,12,03,03,18.30
2015,08,12,03,04,18.20
2015,08,12,03,05,18.20
2015,08,12,03,06,18.20
2015,08,12,03,07,18.20
2015,08,12,03,08,18.20
2015,08,12,03,09,18.20
2015,08,12,03,10,18.20
2015,08,12,03,11,18.20
2015,08,12,03,12,18.10
2015,08,12,03,13,18.10
2015,08,12,03,14,18.10
2015,08,12,03,15,18.10
2015,08,12,03,16,18.10
2015,08,12,03,17,18.10
2015,08,12,03,18,18.10
2015,08,12,03,19,18.10
2015,08,12,03,20,18.10
2015,08,12,03,21,18.10
2015,08,12,03,22,18.10
2015,08,12,03,23,18.00
2015,08,12,03,24,18.00
2015,08,12,03,25,18.00
2015,08,12,03,26,18.00
2015,08,12,03,27,18.00
2015,08,12,03,28,18.00
2015,08,12,03,29,18.00
2015,08,12,03,30,18.00
2015,08,12,03,31,18.00
2015,08,12,03,32,17.90
2015,08,12,03,33,17.90
2015,08,12,03,34,17.90
2015,08,12,03,35,17.90
2015,08,12,03,36,17.90
2015,08,12,03,37,17.90
2015,08,12,03,38,17.90
2015,08,12,03,39,17.90
2015,08,12,03,40,17.90
2015,08,12,03,41,17.90
2015,08,12,03,42,17.90
2015,08,12,03,43,17.90
2015,08,12,03,44,17.80
2015,08,12,03,45,17.80
2015,08,12,03,46,17.80
2015,08,12,03,47,17.80
2015,08,12,03,48,17.80
2015,08,12,03,49,17.80
2015,08,12,03,50,17.80
2015,08,12,03,51,17.80
2015,08,12,03,52,17.70
2015,08,12,03,53,17.70
2015,08,12,03,54,17.70
2015,08,12,03,55,17.70
2015,08,12,03,56,17.70
2015,08,12,03,57,17.70
2015,08,12,03,58,17.70
2015,08,12,03,59,17.70
2015,08,12,04,00,17.70
2015,08,12,04,01,17.70
2015,08,12,04,02,17.70
2015,08,12,04,03,17.70
2015,08,12,04,04,17.60
2015,08,12,04,05,17.60
2015,08,12,04,06,17.60
2015,08,12,04,07,17.60
2015,08,12,04,08,17.60
2015,08,12,04,09,17.60
2015,08,12,04,10,17.60
2015,08,12,04,11,17.60
2015,08,12,04,12,17.60
2015,08,12,04,13,17.60
2015,08,12,04,14,17.60
2015,08,12,04,15,17.60
2015,08,12,04,16,17.60
2015,08,12,04,17,17.60
2015,08,12,04,18,17.50
2015,08,12,04,19,17.50
2015,08,12,04,20,17.50
2015,08,12,04,21,17.50
2015,08,12,04,22,17.50
2015,08,12,04,23,17.50
2015,08,12,04,24,17.50
2015,08,12,04,25,17.50
2015,08,12,04,26,17.50
2015,08,12,04,27,17.40
2015,08,12,04,28,17.40
2015,08,12,04,29,17.40
2015,08,12,04,30,17.50
2015,08,12,04,31,17.40
2015,08,12,04,32,17.40
2015,08,12,04,33,17.40
2015,08,12,04,34,17.40
2015,08,12,04,35,17.40
2015,08,12,04,36,17.40
2015,08,12,04,37,17.40
2015,08,12,04,38,17.40
2015,08,12,04,39,17.40
2015,08,12,04,40,17.40
2015,08,12,04,41,17.40
2015,08,12,04,42,17.40
2015,08,12,04,43,17.40
2015,08,12,04,44,17.30
2015,08,12,04,45,17.30
2015,08,12,04,46,17.30
2015,08,12,04,47,17.30
2015,08,12,04,48,17.30
2015,08,12,04,49,17.30
2015,08,12,04,50,17.30
2015,08,12,04,51,17.30
2015,08,12,04,52,17.30
2015,08,12,04,53,17.30
2015,08,12,04,54,17.20
2015,08,12,04,55,17.20
2015,08,12,04,56,17.20
2015,08,12,04,57,17.20
2015,08,12,04,58,17.20
2015,08,12,04,59,17.20
2015,08,12,05,00,17.20
2015,08,12,05,01,17.20
2015,08,12,05,02,17.20
2015,08,12,05,03,17.20
2015,08,12,05,04,17.10
2015,08,12,05,05,17.10
2015,08,12,05,06,17.10
2015,08,12,05,07,17.10
2015,08,12,05,08,17.10
2015,08,12,05,09,17.10
2015,08,12,05,10,17.10
2015,08,12,05,11,17.10
2015,08,12,05,12,17.10
2015,08,12,05,13,17.00
2015,08,12,05,14,17.00
2015,08,12,05,15,17.00
2015,08,12,05,16,17.00
2015,08,12,05,17,17.00
2015,08,12,05,18,17.00
2015,08,12,05,19,17.00
2015,08,12,05,20,17.00
2015,08,12,05,21,17.00
2015,08,12,05,22,17.00
2015,08,12,05,23,17.00
2015,08,12,05,24,16.90
2015,08,12,05,25,16.90
2015,08,12,05,26,16.90
2015,08,12,05,27,16.90
2015,08,12,05,28,16.90
2015,08,12,05,29,16.90
2015,08,12,05,30,16.90
2015,08,12,05,31,16.90
2015,08,12,05,32,16.90
2015,08,12,05,33,16.90
2015,08,12,05,34,16.90
2015,08,12,05,35,16.80
2015,08,12,05,36,16.80
2015,08,12,05,37,16.80
2015,08,12,05,38,16.80
2015,08,12,05,39,16.80
2015,08,12,05,40,16.80
2015,08,12,05,41,16.80
2015,08,12,05,42,16.80
2015,08,12,05,43,16.80
2015,08,12,05,44,16.80
2015,08,12,05,45,16.80
2015,08,12,05,46,16.80
2015,08,12,05,47,16.80
2015,08,12,05,48,16.80
2015,08,12,05,49,16.80
2015,08,12,05,50,16.80
2015,08,12,05,51,16.80
2015,08,12,05,52,16.80
2015,08,12,05,53,16.80
2015,08,12,05,54,16.80
2015,08,12,05,55,16.80
2015,08,12,05,56,16.80
2015,08,12,05,57,16.70
2015,08,12,05,58,16.70
2015,08,12,05,59,16.70
2015,08,12,06,00,16.70
2015,08,12,06,01,16.70
2015,08,12,06,02,16.70
2015,08,12,06,03,16.70
2015,08,12,06,04,16.70
2015,08,12,06,05,16.70
2015,08,12,06,06,16.70
2015,08,12,06,07,16.70
2015,08,12,06,08,16.70
2015,08,12,06,09,16.70
2015,08,12,06,10,16.70
2015,08,12,06,11,16.70
2015,08,12,06,12,16.70
2015,08,12,06,13,16.70
2015,08,12,06,14,16.70
2015,08,12,06,15,16.70
2015,08,12,06,16,16.60
2015,08,12,06,17,16.60
2015,08,12,06,18,16.60
2015,08,12,06,19,16.60
2015,08,12,06,20,16.60
2015,08,12,06,21,16.60
2015,08,12,06,22,16.60
2015,08,12,06,23,16.60
2015,08,12,06,24,16.50
2015,08,12,06,25,16.50
2015,08,12,06,26,16.50
2015,08,12,06,27,16.50
2015,08,12,06,28,16.50
2015,08,12,06,29,16.50
2015,08,12,06,30,16.40
2015,08,12,06,31,16.40
2015,08,12,06,32,16.40
2015,08,12,06,33,16.40
2015,08,12,06,34,16.40
2015,08,12,06,35,16.40
2015,08,12,06,36,16.40
2015,08,12,06,37,16.40
2015,08,12,06,38,16.40
2015,08,12,06,39,16.40
2015,08,12,06,40,16.40
2015,08,12,06,41,16.40
2015,08,12,06,42,16.30
2015,08,12,06,43,16.30
2015,08,12,06,44,16.30
2015,08,12,06,45,16.30
2015,08,12,06,46,16.30
2015,08,12,06,47,16.30
2015,08,12,06,48,16.30
2015,08,12,06,49,16.30
2015,08,12,06,50,16.30
2015,08,12,06,51,16.30
2015,08,12,06,52,16.30
2015,08,12,06,53,16.30
2015,08,12,06,54,16.30
2015,08,12,06,55,16.30
2015,08,12,06,56,16.30
2015,08,12,06,57,16.30
2015,08,12,06,58,16.30
2015,08,12,06,59,16.30
2015,08,12,07,00,16.30
2015,08,12,07,01,16.30
2015,08,12,07,02,16.30
2015,08,12,07,03,16.30
2015,08,12,07,04,16.30
2015,08,12,07,05,16.30
2015,08,12,07,06,16.30
2015,08,12,07,07,16.30
2015,08,12,07,08,16.30
2015,08,12,07,09,16.30
2015,08,12,07,10,16.30
2015,08,12,07,11,16.30
2015,08,12,07,12,16.30
2015,08,12,07,13,16.30
2015,08,12,07,14,16.30
2015,08,12,07,15,16.30
2015,08,12,07,16,16.30
2015,08,12,07,17,16.30
2015,08,12,07,18,16.30
2015,08,12,07,19,16.30
2015,08,12,07,20,16.30
2015,08,12,07,21,16.40
2015,08,12,07,22,16.40
2015,08,12,07,23,16.40
2015,08,12,07,24,16.40
2015,08,12,07,25,16.40
2015,08,12,07,26,16.40
2015,08,12,07,27,16.40
2015,08,12,07,28,16.40
2015,08,12,07,29,16.40
2015,08,12,07,30,16.40
2015,08,12,07,31,16.40
2015,08,12,07,32,16.40
2015,08,12,07,33,16.40
2015,08,12,07,34,16.40
2015,08,12,07,35,16.50
2015,08,12,07,36,16.50
2015,08,12,07,37,16.50
2015,08,12,07,38,16.50
2015,08,12,07,39,16.50
2015,08,12,07,40,16.50
2015,08,12,07,41,16.50
2015,08,12,07,42,16.50
2015,08,12,07,43,16.60
2015,08,12,07,44,16.60
2015,08,12,07,45,16.60
2015,08,12,07,46,16.60
2015,08,12,07,47,16.60
2015,08,12,07,48,16.60
2015,08,12,07,49,16.70
2015,08,12,07,50,16.70
2015,08,12,07,51,16.70
2015,08,12,07,52,16.70
2015,08,12,07,53,16.70
2015,08,12,07,54,16.80
2015,08,12,07,55,16.80
2015,08,12,07,56,16.80
2015,08,12,07,57,16.90
2015,08,12,07,58,16.90
2015,08,12,07,59,16.90
2015,08,12,08,00,16.90
2015,08,12,08,01,17.00
2015,08,12,08,02,17.00
2015,08,12,08,03,17.10
2015,08,12,08,04,17.10
2015,08,12,08,05,17.20
2015,08,12,08,06,17.20
2015,08,12,08,07,17.20
2015,08,12,08,08,17.20
2015,08,12,08,09,17.30
2015,08,12,08,10,17.30
2015,08,12,08,11,17.30
2015,08,12,08,12,17.30
2015,08,12,08,13,17.30
2015,08,12,08,14,17.30
2015,08,12,08,15,17.30
2015,08,12,08,16,17.40
2015,08,12,08,17,17.40
2015,08,12,08,18,17.40
2015,08,12,08,19,17.40
2015,08,12,08,20,17.40
2015,08,12,08,21,17.40
2015,08,12,08,22,17.40
2015,08,12,08,23,17.40
2015,08,12,08,24,17.40
2015,08,12,08,25,17.50
2015,08,12,08,26,17.50
2015,08,12,08,27,17.60
2015,08,12,08,28,17.60
2015,08,12,08,29,17.60
2015,08,12,08,30,17.60
2015,08,12,08,31,17.60
2015,08,12,08,32,17.60
2015,08,12,08,33,17.70
2015,08,12,08,34,17.70
2015,08,12,08,35,17.70
2015,08,12,08,36,17.70
2015,08,12,08,37,17.70
2015,08,12,08,38,17.70
2015,08,12,08,39,17.70
2015,08,12,08,40,17.70
2015,08,12,08,41,17.80
2015,08,12,08,42,17.80
2015,08,12,08,43,17.80
2015,08,12,08,44,17.80
2015,08,12,08,45,17.80
2015,08,12,08,46,17.80
2015,08,12,08,47,17.90
2015,08,12,08,48,17.90
2015,08,12,08,49,17.90
2015,08,12,08,50,18.00
2015,08,12,08,51,18.00
2015,08,12,08,52,18.00
2015,08,12,08,53,18.10
2015,08,12,08,54,18.10
2015,08,12,08,55,18.20
2015,08,12,08,56,18.20
2015,08,12,08,57,18.20
2015,08,12,08,58,18.20
2015,08,12,08,59,18.20
2015,08,12,09,00,18.20
2015,08,12,09,01,18.20
2015,08,12,09,02,18.20
2015,08,12,09,03,18.20
2015,08,12,09,04,18.20
2015,08,12,09,05,18.20
2015,08,12,09,06,18.20
2015,08,12,09,07,18.20
2015,08,12,09,08,18.30
2015,08,12,09,09,18.30
2015,08,12,09,10,18.30
2015,08,12,09,11,18.40
2015,08,12,09,12,18.40
2015,08,12,09,13,18.40
2015,08,12,09,14,18.50
2015,08,12,09,15,18.50
2015,08,12,09,16,18.50
2015,08,12,09,17,18.60
2015,08,12,09,18,18.60
2015,08,12,09,19,18.60
2015,08,12,09,20,18.60
2015,08,12,09,21,18.60
2015,08,12,09,22,18.60
2015,08,12,09,23,18.70
2015,08,12,09,24,18.70
2015,08,12,09,25,18.70
2015,08,12,09,26,18.70
2015,08,12,09,27,18.70
2015,08,12,09,28,18.70
2015,08,12,09,29,18.70
2015,08,12,09,30,18.80
2015,08,12,09,31,18.80
2015,08,12,09,32,18.80
2015,08,12,09,33,18.80
2015,08,12,09,34,18.80
2015,08,12,09,35,18.80
2015,08,12,09,36,18.80
2015,08,12,09,37,18.80
2015,08,12,09,38,18.80
2015,08,12,09,39,18.80
2015,08,12,09,40,18.80
2015,08,12,09,41,18.90
2015,08,12,09,42,18.90
2015,08,12,09,43,19.00
2015,08,12,09,44,19.00
2015,08,12,09,45,19.10
2015,08,12,09,46,19.10
2015,08,12,09,47,19.20
2015,08,12,09,48,19.30
2015,08,12,09,49,19.40
2015,08,12,09,50,19.50
2015,08,12,09,51,19.50
2015,08,12,09,52,19.60
2015,08,12,09,53,19.70
2015,08,12,09,54,19.60
2015,08,12,09,55,19.60
2015,08,12,09,56,19.60
2015,08,12,09,57,19.60
2015,08,12,09,58,19.70
2015,08,12,09,59,19.70
2015,08,12,10,00,19.70
2015,08,12,10,01,19.70
2015,08,12,10,02,19.70
2015,08,12,10,03,19.80
2015,08,12,10,04,19.80
2015,08,12,10,05,19.80
2015,08,12,10,06,19.80
2015,08,12,10,07,19.90
2015,08,12,10,08,19.90
2015,08,12,10,09,20.00
2015,08,12,10,10,20.00
2015,08,12,10,11,20.10
2015,08,12,10,12,20.10
2015,08,12,10,13,20.10
2015,08,12,10,14,20.20
2015,08,12,10,15,20.20
2015,08,12,10,16,20.30
2015,08,12,10,17,20.30
2015,08,12,10,18,20.30
2015,08,12,10,19,20.30
2015,08,12,10,20,20.40
2015,08,12,10,21,20.40
2015,08,12,10,22,20.50
2015,08,12,10,23,20.50
2015,08,12,10,24,20.60
2015,08,12,10,25,20.60
2015,08,12,10,26,20.60
2015,08,12,10,27,20.70
2015,08,12,10,28,20.70
2015,08,12,10,29,20.70
2015,08,12,10,30,20.70
2015,08,12,10,31,20.80
2015,08,12,10,32,20.80
2015,08,12,10,33,20.90
2015,08,12,10,34,20.90
2015,08,12,10,35,20.90
2015,08,12,10,36,20.90
2015,08,12,10,37,20.90
2015,08,12,10,38,20.90
2015,08,12,10,39,20.90
2015,08,12,10,40,20.90
2015,08,12,10,41,21.00
2015,08,12,10,42,21.00
2015,08,12,10,43,21.10
2015,08,12,10,44,21.20
2015,08,12,10,45,21.30
2015,08,12,10,46,21.30
2015,08,12,10,47,21.40
2015,08,12,10,48,21.40
2015,08,12,10,49,21.40
2015,08,12,10,50,21.40
2015,08,12,10,51,21.50
2015,08,12,10,52,21.50
2015,08,12,10,53,21.60
2015,08,12,10,54,21.60
2015,08,12,10,55,21.60
2015,08,12,10,56,21.60
2015,08,12,10,57,21.70
2015,08,12,10,58,21.70
2015,08,12,10,59,21.70
2015,08,12,11,00,21.80
2015,08,12,11,01,21.70
2015,08,12,11,02,21.70
2015,08,12,11,03,21.70
2015,08,12,11,04,21.70
2015,08,12,11,05,21.70
2015,08,12,11,06,21.80
2015,08,12,11,07,21.80
2015,08,12,11,08,21.90
2015,08,12,11,09,21.90
2015,08,12,11,10,21.90
2015,08,12,11,11,21.90
2015,08,12,11,12,22.00
2015,08,12,11,13,21.90
2015,08,12,11,14,21.90
2015,08,12,11,15,21.90
2015,08,12,11,16,21.90
2015,08,12,11,17,22.00
2015,08,12,11,18,22.00
2015,08,12,11,19,22.10
2015,08,12,11,20,22.10
2015,08,12,11,21,22.10
2015,08,12,11,22,22.10
2015,08,12,11,23,22.20
2015,08,12,11,24,22.20
2015,08,12,11,25,22.30
2015,08,12,11,26,22.40
2015,08,12,11,27,22.40
2015,08,12,11,28,22.50
2015,08,12,11,29,22.60
2015,08,12,11,30,22.60
2015,08,12,11,31,22.60
2015,08,12,11,32,22.60
2015,08,12,11,33,22.60
2015,08,12,11,34,22.60
2015,08,12,11,35,22.60
2015,08,12,11,36,22.60
2015,08,12,11,37,22.60
2015,08,12,11,38,22.60
2015,08,12,11,39,22.70
2015,08,12,11,40,22.70
2015,08,12,11,41,22.70
2015,08,12,11,42,22.80
2015,08,12,11,43,22.80
2015,08,12,11,44,22.90
2015,08,12,11,45,22.90
2015,08,12,11,46,23.00
2015,08,12,11,47,23.10
2015,08,12,11,48,23.10
2015,08,12,11,49,23.20
2015,08,12,11,50,23.20
2015,08,12,11,51,23.30
2015,08,12,11,52,23.30
2015,08,12,11,53,23.40
2015,08,12,11,54,23.40
2015,08,12,11,55,23.40
2015,08,12,11,56,23.30
2015,08,12,11,57,23.30
2015,08,12,11,58,23.20
2015,08,12,11,59,23.20
2015,08,12,12,00,23.20
2015,08,12,12,01,23.20
2015,08,12,12,02,23.20
2015,08,12,12,03,23.30
2015,08,12,12,04,23.40
2015,08,12,12,05,23.50
2015,08,12,12,06,23.60
2015,08,12,12,07,23.70
2015,08,12,12,08,23.70
2015,08,12,12,09,23.80
2015,08,12,12,10,23.80
2015,08,12,12,11,23.90
2015,08,12,12,12,23.90
2015,08,12,12,13,23.90
2015,08,12,12,14,24.00
2015,08,12,12,15,24.10
2015,08,12,12,16,24.10
2015,08,12,12,17,24.10
2015,08,12,12,18,24.20
2015,08,12,12,19,24.30
2015,08,12,12,20,24.30
2015,08,12,12,21,24.30
2015,08,12,12,22,24.40
2015,08,12,12,23,24.50
2015,08,12,12,24,24.50
2015,08,12,12,25,24.50
2015,08,12,12,26,24.60
2015,08,12,12,27,24.70
2015,08,12,12,28,24.70
2015,08,12,12,29,24.70
2015,08,12,12,30,24.70
2015,08,12,12,31,24.70
2015,08,12,12,32,24.70
2015,08,12,12,33,24.70
2015,08,12,12,34,24.70
2015,08,12,12,35,24.70
2015,08,12,12,36,24.70
2015,08,12,12,37,24.70
2015,08,12,12,38,24.80
2015,08,12,12,39,24.80
2015,08,12,12,40,24.90
2015,08,12,12,41,25.00
2015,08,12,12,42,25.10
2015,08,12,12,43,25.10
2015,08,12,12,44,25.10
2015,08,12,12,45,25.20
2015,08,12,12,46,25.20
2015,08,12,12,47,25.20
2015,08,12,12,48,25.30
2015,08,12,12,49,25.30
2015,08,12,12,50,25.40
2015,08,12,12,51,25.30
2015,08,12,12,52,25.30
2015,08,12,12,53,25.30
2015,08,12,12,54,25.30
2015,08,12,12,55,25.30
2015,08,12,12,56,25.30
2015,08,12,12,57,25.30
2015,08,12,12,58,25.30
2015,08,12,12,59,25.30
2015,08,12,13,00,25.40
2015,08,12,13,01,25.50
2015,08,12,13,02,25.60
2015,08,12,13,03,25.80
2015,08,12,13,04,25.80
2015,08,12,13,05,25.90
2015,08,12,13,06,26.00
2015,08,12,13,07,26.10
2015,08,12,13,08,26.10
2015,08,12,13,09,26.10
2015,08,12,13,10,26.10
2015,08,12,13,11,26.10
2015,08,12,13,12,26.00
2015,08,12,13,13,26.00
2015,08,12,13,14,25.90
2015,08,12,13,15,25.90
2015,08,12,13,16,25.80
2015,08,12,13,17,25.70
2015,08,12,13,18,25.60
2015,08,12,13,19,25.60
2015,08,12,13,20,25.60
2015,08,12,13,21,25.60
2015,08,12,13,22,25.70
2015,08,12,13,23,25.80
2015,08,12,13,24,25.90
2015,08,12,13,25,26.00
2015,08,12,13,26,26.10
2015,08,12,13,27,26.20
2015,08,12,13,28,26.20
2015,08,12,13,29,26.30
2015,08,12,13,30,26.30
2015,08,12,13,31,26.30
2015,08,12,13,32,26.30
2015,08,12,13,33,26.40
2015,08,12,13,34,26.40
2015,08,12,13,35,26.50
2015,08,12,13,36,26.60
2015,08,12,13,37,26.60
2015,08,12,13,38,26.70
2015,08,12,13,39,26.70
2015,08,12,13,40,26.70
2015,08,12,13,41,26.70
2015,08,12,13,42,26.70
2015,08,12,13,43,26.70
2015,08,12,13,44,26.70
2015,08,12,13,45,26.80
2015,08,12,13,46,26.80
2015,08,12,13,47,26.80
2015,08,12,13,48,26.90
2015,08,12,13,49,27.00
2015,08,12,13,50,27.10
2015,08,12,13,51,27.20
2015,08,12,13,52,27.20
2015,08,12,13,53,27.30
2015,08,12,13,54,27.30
2015,08,12,13,55,27.40
2015,08,12,13,56,27.50
2015,08,12,13,57,27.60
2015,08,12,13,58,27.70
2015,08,12,13,59,27.80
2015,08,12,14,00,27.80
2015,08,12,14,01,27.90
2015,08,12,14,02,27.90
2015,08,12,14,03,27.90
2015,08,12,14,04,27.90
2015,08,12,14,05,28.00
2015,08,12,14,06,28.00
2015,08,12,14,07,28.10
2015,08,12,14,08,28.20
2015,08,12,14,09,28.20
2015,08,12,14,10,28.20
2015,08,12,14,11,28.20
2015,08,12,14,12,28.20
2015,08,12,14,13,28.30
2015,08,12,14,14,28.30
2015,08,12,14,15,28.40
2015,08,12,14,16,28.50
2015,08,12,14,17,28.40
2015,08,12,14,18,28.50
2015,08,12,14,19,28.40
2015,08,12,14,20,28.30
2015,08,12,14,21,28.30
2015,08,12,14,22,28.30
2015,08,12,14,23,28.30
2015,08,12,14,24,28.20
2015,08,12,14,25,28.20
2015,08,12,14,26,28.20
2015,08,12,14,27,28.20
2015,08,12,14,28,28.20
2015,08,12,14,29,28.30
2015,08,12,14,30,28.30
2015,08,12,14,31,28.20
2015,08,12,14,32,28.20
2015,08,12,14,33,28.20
2015,08,12,14,34,28.30
2015,08,12,14,35,28.30
2015,08,12,14,36,28.30
2015,08,12,14,37,28.30
2015,08,12,14,38,28.30
2015,08,12,14,39,28.30
2015,08,12,14,40,28.30
2015,08,12,14,41,28.30
2015,08,12,14,42,28.30
2015,08,12,14,43,28.30
2015,08,12,14,44,28.40
2015,08,12,14,45,28.40
2015,08,12,14,46,28.30
2015,08,12,14,47,28.30
2015,08,12,14,48,28.20
2015,08,12,14,49,28.20
2015,08,12,14,50,28.20
2015,08,12,14,51,28.30
2015,08,12,14,52,28.30
2015,08,12,14,53,28.40
2015,08,12,14,54,28.40
2015,08,12,14,55,28.40
2015,08,12,14,56,28.40
2015,08,12,14,57,28.30
2015,08,12,14,58,28.30
2015,08,12,14,59,28.30
2015,08,12,15,00,28.40
2015,08,12,15,01,28.40
2015,08,12,15,02,28.40
2015,08,12,15,03,28.50
2015,08,12,15,04,28.40
2015,08,12,15,05,28.30
2015,08,12,15,06,28.20
2015,08,12,15,07,28.20
2015,08,12,15,08,28.30
2015,08,12,15,09,28.40
2015,08,12,15,10,28.30
2015,08,12,15,11,28.30
2015,08,12,15,12,28.30
2015,08,12,15,13,28.40
2015,08,12,15,14,28.40
2015,08,12,15,15,28.40
2015,08,12,15,16,28.40
2015,08,12,15,17,28.40
2015,08,12,15,18,28.50
2015,08,12,15,19,28.50
2015,08,12,15,20,28.60
2015,08,12,15,21,28.60
2015,08,12,15,22,28.70
2015,08,12,15,23,28.70
2015,08,12,15,24,28.70
2015,08,12,15,25,28.70
2015,08,12,15,26,28.60
2015,08,12,15,27,28.60
2015,08,12,15,28,28.70
2015,08,12,15,29,28.70
2015,08,12,15,30,28.80
2015,08,12,15,31,28.90
2015,08,12,15,32,29.00
2015,08,12,15,33,29.10
2015,08,12,15,34,29.10
2015,08,12,15,35,29.10
2015,08,12,15,36,29.10
2015,08,12,15,37,29.20
2015,08,12,15,38,29.30
2015,08,12,15,39,29.30
2015,08,12,15,40,29.40
2015,08,12,15,41,29.50
2015,08,12,15,42,29.50
2015,08,12,15,43,29.50
2015,08,12,15,44,29.50
2015,08,12,15,45,29.50
2015,08,12,15,46,29.40
2015,08,12,15,47,29.40
2015,08,12,15,48,29.40
2015,08,12,15,49,29.40
2015,08,12,15,50,29.40
2015,08,12,15,51,29.40
2015,08,12,15,52,29.50
2015,08,12,15,53,29.50
2015,08,12,15,54,29.60
2015,08,12,15,55,29.70
2015,08,12,15,56,29.80
2015,08,12,15,57,29.80
2015,08,12,15,58,29.80
2015,08,12,15,59,29.80
2015,08,12,16,00,29.80
2015,08,12,16,01,29.90
2015,08,12,16,02,29.90
2015,08,12,16,03,30.00
2015,08,12,16,04,30.00
2015,08,12,16,05,30.00
2015,08,12,16,06,30.10
2015,08,12,16,07,30.10
2015,08,12,16,08,30.10
2015,08,12,16,09,30.20
2015,08,12,16,10,30.30
2015,08,12,16,11,30.30
2015,08,12,16,12,30.40
2015,08,12,16,13,30.40
2015,08,12,16,14,30.50
2015,08,12,16,15,30.50
2015,08,12,16,16,30.60
2015,08,12,16,17,30.60
2015,08,12,16,18,30.60
2015,08,12,16,19,30.60
2015,08,12,16,20,30.70
2015,08,12,16,21,30.70
2015,08,12,16,22,30.70
2015,08,12,16,23,30.70
2015,08,12,16,24,30.70
2015,08,12,16,25,30.70
2015,08,12,16,26,30.70
2015,08,12,16,27,30.70
2015,08,12,16,28,30.80
2015,08,12,16,29,30.80
2015,08,12,16,30,30.80
2015,08,12,16,31,30.80
2015,08,12,16,32,30.80
2015,08,12,16,33,30.80
2015,08,12,16,34,30.80
2015,08,12,16,35,30.80
2015,08,12,16,36,30.80
2015,08,12,16,37,30.80
2015,08,12,16,38,30.70
2015,08,12,16,39,30.70
2015,08,12,16,40,30.70
2015,08,12,16,41,30.70
2015,08,12,16,42,30.70
2015,08,12,16,43,30.60
2015,08,12,16,44,30.60
2015,08,12,16,45,30.60
2015,08,12,16,46,30.60
2015,08,12,16,47,30.60
2015,08,12,16,48,30.60
2015,08,12,16,49,30.60
2015,08,12,16,50,30.50
2015,08,12,16,51,30.50
2015,08,12,16,52,30.40
2015,08,12,16,53,30.40
2015,08,12,16,54,30.40
2015,08,12,16,55,30.40
2015,08,12,16,56,30.40
2015,08,12,16,57,30.40
2015,08,12,16,58,30.40
2015,08,12,16,59,30.40
2015,08,12,17,00,30.40
2015,08,12,17,01,30.40
2015,08,12,17,02,30.40
2015,08,12,17,03,30.40
2015,08,12,17,04,30.40
2015,08,12,17,05,30.40
2015,08,12,17,06,30.40
2015,08,12,17,07,30.40
2015,08,12,17,08,30.40
2015,08,12,17,09,30.40
2015,08,12,17,10,30.40
2015,08,12,17,11,30.50
2015,08,12,17,12,30.60
2015,08,12,17,13,30.60
2015,08,12,17,14,30.60
2015,08,12,17,15,30.60
2015,08,12,17,16,30.60
2015,08,12,17,17,30.60
2015,08,12,17,18,30.60
2015,08,12,17,19,30.60